Weather in Shalakhovo

Russia / Pskov Oblast     56°08′29″N   29°18′16″E
temp.,
°C
wind,
m/s
gust,
m/s
humid.,
%
clouds,
%
prec.,
mm/h
press.,
hPa
HPBL,
m
11 april, sun
sun1100:00+4nw119494 0.0 102111
03:00+4ene0192100 0.0 102210
06:00+4ese2392100 0.0 102379
09:00+4ese249499 0.1 1024137
12:00+9se2377100 0.0 1025748
15:00+7ese2693100 0.1 1026245
18:00+8ese368797 0.0 1026227
21:00+7ese379167 0.0 1026120
12 april, mon
mon1200:00+6sse3109049 0.0 1027168
03:00+6sse3118934 0.0 1028202
06:00+5sse4128499 0.0 1027254
09:00+9sse4117195 0.0 1027385
12:00+13sse59485 0.0 10261166
15:00+15sse58415 0.0 10241600
18:00+15sse47450 0.0 10221526
21:00+9se37670 0.0 1022137
13 april, tue
tue1300:00+7sse310760 0.0 1022211
03:00+5sse3990100 0.0 1021192
06:00+5sse2694100 0.0 1021130
09:00+9sse36715 0.0 1020306
12:00+15s464650 0.0 10191130
15:00+17ssw353943 0.0 10191843
18:00+13wnw366297 0.0 1019271
21:00+10nnw4782100 0.0 1020395
14 april, wed
wed1400:00+6nnw4789100 0.0 1021348
03:00+4n399155 0.0 1021359
06:00+4n4109294 0.0 1021439
09:00+6nne4980100 0.0 1021588
12:00+7nne5875100 0.0 1021729
15:00+6nne51082100 1.1 1021736
18:00+4nne51382100 1.6 1021677
21:00+3nne51384100 2.1 1022679
15 april, thu
thu1500:00+4nne51284100 0.3 1022596
03:00+3nne51186100 0.4 1021573
06:00+3nne51382100 0.6 1021537
09:00+2nne51385100 1.8 1022564
12:00+3nne51480100 0.4 1023628
15:00+4nne51375100 0.5 1023755
18:00+6ne51166100 0.1 1023872
21:00+4nne51463100 0.1 1024732